• In Russia
  • List of Countries
  • For 7 days
  • Water Temperature
  • Satellite Maps
  • Weather Map
  • Weather Widgets
  • user-avatar
    Login

    Hourly Weather Jewłach

    Today, 21 July, Friday

    Time Temperature Precipitation Wind Pressure Humidity
    00:00 +30°C° 0 mm 1 mps 756 mmHg 25%
    01:00 +30°C° 0 mm 2 mps 756 mmHg 25%
    02:00 +29°C° 0 mm 2 mps 756 mmHg 26%
    03:00 +29°C° 0 mm 2 mps 756 mmHg 26%
    04:00 +29°C° 0 mm 2 mps 756 mmHg 26%
    05:00 +29°C° 0 mm 2 mps 757 mmHg 27%
    06:00 +30°C° 0 mm 2 mps 757 mmHg 27%
    07:00 +33°C° 0 mm 3 mps 757 mmHg 24%
    08:00 +35°C° 0 mm 3 mps 757 mmHg 20%
    09:00 +37°C° 0 mm 3 mps 756 mmHg 17%
    10:00 +38°C° 0 mm 3 mps 756 mmHg 16%
    11:00 +39°C° 0 mm 2 mps 756 mmHg 15%
    12:00 +41°C° 0 mm 2 mps 756 mmHg 13%
    13:00 +43°C° 0 mm 3 mps 756 mmHg 12%
    14:00 +43°C° 0 mm 4 mps 756 mmHg 11%
    15:00 +44°C° 0 mm 4 mps 755 mmHg 10%
    16:00 +45°C° 0 mm 5 mps 756 mmHg 11%
    17:00 +43°C° 0 mm 5 mps 756 mmHg 12%
    18:00 +42°C° 0 mm 5 mps 756 mmHg 13%
    19:00 +40°C° 0 mm 5 mps 756 mmHg 15%
    20:00 +36°C° 0 mm 5 mps 757 mmHg 18%
    21:00 +34°C° 0 mm 4 mps 758 mmHg 20%
    22:00 +33°C° 0 mm 4 mps 758 mmHg 22%
    23:00 +31°C° 0 mm 3 mps 758 mmHg 24%

    Tomorrow, 22 July, Saturday

    Time Temperature Precipitation Wind Pressure Humidity
    00:00 +30°C° 0 mm 2 mps 758 mmHg 26%
    01:00 +30°C° 0 mm 2 mps 758 mmHg 27%
    02:00 +29°C° 0 mm 2 mps 758 mmHg 29%
    03:00 +29°C° 0 mm 2 mps 758 mmHg 30%
    04:00 +29°C° 0 mm 1 mps 758 mmHg 30%
    05:00 +30°C° 0 mm 1 mps 759 mmHg 31%
    06:00 +30°C° 0 mm 1 mps 759 mmHg 32%
    07:00 +32°C° 0 mm 1 mps 759 mmHg 28%
    08:00 +35°C° 0 mm 2 mps 758 mmHg 25%
    09:00 +37°C° 0 mm 2 mps 758 mmHg 21%
    10:00 +38°C° 0 mm 2 mps 758 mmHg 19%
    11:00 +40°C° 0 mm 3 mps 758 mmHg 17%
    12:00 +42°C° 0 mm 3 mps 757 mmHg 15%
    13:00 +43°C° 0 mm 4 mps 757 mmHg 14%
    14:00 +43°C° 0 mm 4 mps 756 mmHg 13%
    15:00 +45°C° 0 mm 5 mps 756 mmHg 12%
    16:00 +43°C° 0 mm 5 mps 756 mmHg 13%
    17:00 +43°C° 0 mm 5 mps 756 mmHg 14%
    18:00 +42°C° 0 mm 5 mps 756 mmHg 15%
    19:00 +40°C° 0 mm 5 mps 756 mmHg 18%
    20:00 +36°C° 0 mm 4 mps 756 mmHg 20%
    21:00 +34°C° 0 mm 4 mps 757 mmHg 22%
    22:00 +33°C° 0 mm 3 mps 757 mmHg 24%
    23:00 +31°C° 0 mm 3 mps 757 mmHg 26%

    Day after tomorrow, 23 July, Sunday

    Time Temperature Precipitation Wind Pressure Humidity
    00:00 +30°C° 0 mm 2 mps 757 mmHg 28%
    01:00 +29°C° 0 mm 2 mps 757 mmHg 28%
    02:00 +29°C° 0 mm 1 mps 756 mmHg 29%
    03:00 +28°C° 0 mm 1 mps 756 mmHg 29%
    04:00 +29°C° 0 mm 1 mps 756 mmHg 28%
    05:00 +29°C° 0 mm 1 mps 756 mmHg 28%
    06:00 +30°C° 0 mm 1 mps 756 mmHg 28%
    07:00 +32°C° 0 mm 1 mps 756 mmHg 25%
    08:00 +35°C° 0 mm 2 mps 756 mmHg 21%
    09:00 +36°C° 0 mm 2 mps 755 mmHg 18%
    10:00 +38°C° 0 mm 2 mps 755 mmHg 17%
    11:00 +39°C° 0 mm 2 mps 754 mmHg 16%
    12:00 +40°C° 0 mm 2 mps 754 mmHg 14%
    13:00 +41°C° 0 mm 2 mps 753 mmHg 14%
    14:00 +41°C° 0 mm 2 mps 753 mmHg 13%
    15:00 +42°C° 0 mm 2 mps 752 mmHg 13%
    16:00 +42°C° 0 mm 2 mps 752 mmHg 13%
    17:00 +42°C° 0 mm 2 mps 752 mmHg 14%
    18:00 +41°C° 0 mm 2 mps 752 mmHg 14%
    19:00 +39°C° 0 mm 2 mps 753 mmHg 16%
    20:00 +37°C° 0 mm 3 mps 754 mmHg 17%
    21:00 +34°C° 0 mm 3 mps 754 mmHg 19%
    22:00 +32°C° 0 mm 2 mps 754 mmHg 20%
    23:00 +32°C° 0 mm 2 mps 754 mmHg 22%

    24 July, Monday

    Time Temperature Precipitation Wind Pressure Humidity
    00:00 +31°C° 0 mm 1 mps 754 mmHg 23%
    01:00 +30°C° 0 mm 1 mps 754 mmHg 23%
    02:00 +30°C° 0 mm 2 mps 754 mmHg 23%
    03:00 +29°C° 0 mm 2 mps 754 mmHg 23%
    04:00 +30°C° 0 mm 2 mps 755 mmHg 25%
    05:00 +30°C° 0 mm 2 mps 755 mmHg 26%
    06:00 +30°C° 0 mm 3 mps 755 mmHg 28%
    07:00 +33°C° 0 mm 3 mps 755 mmHg 26%
    08:00 +35°C° 0 mm 3 mps 755 mmHg 24%
    09:00 +37°C° 0 mm 3 mps 754 mmHg 22%
    10:00 +38°C° 0 mm 3 mps 754 mmHg 20%
    11:00 +39°C° 0 mm 2 mps 754 mmHg 18%
    12:00 +40°C° 0 mm 2 mps 753 mmHg 16%
    13:00 +41°C° 0 mm 2 mps 753 mmHg 15%
    14:00 +42°C° 0 mm 2 mps 753 mmHg 15%
    15:00 +43°C° 0 mm 3 mps 752 mmHg 14%
    16:00 +43°C° 0 mm 3 mps 752 mmHg 15%
    17:00 +42°C° 0 mm 3 mps 752 mmHg 15%
    18:00 +42°C° 0 mm 3 mps 753 mmHg 16%
    19:00 +40°C° 0 mm 4 mps 753 mmHg 20%
    20:00 +37°C° 0 mm 4 mps 754 mmHg 23%
    21:00 +34°C° 0 mm 5 mps 754 mmHg 27%
    22:00 +33°C° 0 mm 4 mps 754 mmHg 30%
    23:00 +33°C° 0 mm 3 mps 754 mmHg 33%

    25 July, Tuesday

    Time Temperature Precipitation Wind Pressure Humidity
    00:00 +31°C° 0 mm 3 mps 755 mmHg 36%
    01:00 +30°C° 0 mm 2 mps 755 mmHg 37%
    02:00 +29°C° 0 mm 2 mps 755 mmHg 39%
    03:00 +29°C° 0 mm 2 mps 755 mmHg 41%
    04:00 +29°C° 0 mm 2 mps 755 mmHg 41%
    05:00 +30°C° 0 mm 2 mps 755 mmHg 41%
    06:00 +30°C° 0 mm 2 mps 755 mmHg 42%
    07:00 +32°C° 0 mm 2 mps 755 mmHg 39%
    08:00 +34°C° 0 mm 3 mps 755 mmHg 35%
    09:00 +36°C° 0 mm 3 mps 755 mmHg 32%
    10:00 +38°C° 0 mm 3 mps 754 mmHg 29%
    11:00 +40°C° 0 mm 4 mps 754 mmHg 26%
    12:00 +41°C° 0 mm 4 mps 753 mmHg 23%
    13:00 +42°C° 0 mm 4 mps 753 mmHg 22%
    14:00 +42°C° 0 mm 5 mps 752 mmHg 22%
    15:00 +43°C° 0 mm 5 mps 752 mmHg 21%
    16:00 +42°C° 0 mm 5 mps 752 mmHg 22%
    17:00 +41°C° 0 mm 6 mps 752 mmHg 22%
    18:00 +41°C° 0 mm 6 mps 752 mmHg 23%
    19:00 +39°C° 0 mm 6 mps 753 mmHg 27%
    20:00 +35°C° 0 mm 5 mps 754 mmHg 31%
    21:00 +33°C° 0 mm 5 mps 754 mmHg 35%
    22:00 +32°C° 0 mm 4 mps 755 mmHg 38%
    23:00 +30°C° 0 mm 3 mps 755 mmHg 41%

    26 July, Wednesday

    Time Temperature Precipitation Wind Pressure Humidity
    00:00 +29°C° 0 mm 2 mps 755 mmHg 44%
    01:00 +29°C° 0.1 mm 2 mps 755 mmHg 46%
    02:00 +28°C° 0.1 mm 2 mps 755 mmHg 47%
    03:00 +28°C° 0.1 mm 1 mps 755 mmHg 49%
    04:00 +28°C° 0 mm 1 mps 755 mmHg 48%
    05:00 +29°C° 0 mm 1 mps 756 mmHg 46%
    06:00 +29°C° 0 mm 1 mps 756 mmHg 45%
    07:00 +31°C° 0 mm 1 mps 756 mmHg 41%
    08:00 +32°C° 0 mm 2 mps 755 mmHg 36%
    09:00 +35°C° 0 mm 2 mps 755 mmHg 32%
    10:00 +36°C° 0 mm 2 mps 755 mmHg 30%
    11:00 +37°C° 0 mm 2 mps 754 mmHg 27%
    12:00 +39°C° 0 mm 2 mps 754 mmHg 25%
    13:00 +39°C° 0.1 mm 2 mps 754 mmHg 24%
    14:00 +40°C° 0.1 mm 2 mps 754 mmHg 23%
    15:00 +41°C° 0.1 mm 2 mps 753 mmHg 22%
    16:00 +41°C° 0.1 mm 2 mps 754 mmHg 22%
    17:00 +40°C° 0.1 mm 3 mps 754 mmHg 22%
    18:00 +40°C° 0.1 mm 3 mps 754 mmHg 22%
    19:00 +38°C° 0 mm 3 mps 755 mmHg 25%
    20:00 +36°C° 0 mm 4 mps 755 mmHg 28%
    21:00 +34°C° 0 mm 5 mps 756 mmHg 31%
    22:00 +33°C° 0 mm 4 mps 756 mmHg 34%
    23:00 +31°C° 0 mm 3 mps 756 mmHg 37%
    Show more